User: anonymous   Login
Location: Unspecified
(0.0000°N, 0.0000°E)
Time: 09:39:44
(UTC+00:00)
Language:

DX 1 - Orbit

View from above orbital plane
View from above orbital plane
View from above satellite
View from above satellite

Ground track
Ground track

The orbit data is extracted from the following two-line orbital elements,

1 40071U 14037C   19115.85208979  .00000078  00000-0  17544-4 0  9992
2 40071  98.4176 267.0124 0009450  45.3667 314.8326 14.81255068259283
Epoch (UTC): 25 April 2019 20:27:00
Eccentricity: 0.0009450
inclination: 98.4176°
perigee height: 619 km
apogee height: 632 km
right ascension of ascending node: 267.0124°
argument of perigee: 45.3667°
revolutions per day: 14.81255068
mean anomaly at epoch: 314.8326°
orbit number at epoch: 25928

The dashed part of the orbit path shows where the satellite is in the earth's shadow,  

DLR